GW0587 Weather Reports


Display with metric or nautical units.
time (UTC)temp
F
wind
direction
speed
MPH
gust
MPH
rain 1hr
in
rain 24hr
in
rain mn
in
humidity
%
barometer
mb
20260904003051 84 0 0.0 0.0 0.00 0.00 0.00 85 1013.9
20260904001550 84 0 0.0 0.0 0.00 0.00 0.00 86 1014.0
20260904000108 84 0 0.0 0.0 0.00 0.00 0.00 87 1013.9
20260903234553 84 0 0.0 0.0 0.00 0.00 0.00 86 1013.9
20260903233049 84 0 0.0 0.0 0.00 0.00 0.00 86 1013.7
20260903231550 84 0 0.0 0.0 0.00 0.00 0.00 86 1013.8
20260903230100 84 0 0.0 0.0 0.00 0.00 0.00 83 1013.7
20260903224556 86 0 0.0 4.0 0.00 0.00 0.00 76 1013.5
20260903221548 98 0 1.0 5.0 0.00 0.00 0.00 47 1013.4
20260903220101 98 10 1.0 3.0 0.00 0.00 0.00 47 1013.3
20260903214609 98 309 1.0 4.0 0.00 0.00 0.00 47 1013.4
20260903213052 98 0 1.0 4.0 0.00 0.00 0.00 47 1013.5
20260903211608 99 306 0.0 4.0 0.00 0.00 0.00 46 1013.9
20260903210047 99 0 0.0 4.0 0.00 0.00 0.00 46 1013.9
20260903204559 100 308 1.0 4.0 0.00 0.00 0.00 44 1014.0
20260903203055 100 120 0.0 4.0 0.00 0.00 0.00 44 1014.2
20260903201557 100 308 1.0 5.0 0.00 0.00 0.00 43 1014.1
20260903200057 100 0 0.0 6.0 0.00 0.00 0.00 44 1014.5
20260903194558 100 0 2.0 4.0 0.00 0.00 0.00 45 1014.6
20260903193049 99 273 1.0 3.0 0.00 0.00 0.00 45 1015.0
20260903191548 99 119 1.0 6.0 0.00 0.00 0.00 45 1015.0
20260903190058 98 0 1.0 7.0 0.00 0.00 0.00 47 1015.4
20260903184550 98 0 0.0 3.0 0.00 0.00 0.00 47 1015.5
20260903183048 98 0 0.0 7.0 0.00 0.00 0.00 48 1015.7
20260903181547 98 0 1.0 4.0 0.00 0.00 0.00 46 1015.9
20260903180059 99 0 0.0 6.0 0.00 0.00 0.00 47 1016.0
20260903174554 99 273 1.0 4.0 0.00 0.00 0.00 47 1016.1
20260903173050 96 289 0.0 5.0 0.00 0.00 0.00 51 1016.2
20260903171546 97 294 0.0 3.0 0.00 0.00 0.00 50 1016.5
20260903170105 97 167 1.0 4.0 0.00 0.00 0.00 49 1016.9
20260903164559 96 0 0.0 3.0 0.00 0.00 0.00 51 1016.9
20260903163049 95 0 1.0 7.0 0.00 0.00 0.00 51 1017.0
20260903161548 95 201 0.0 5.0 0.00 0.00 0.00 53 1017.1
20260903160048 95 0 0.0 3.0 0.00 0.00 0.00 54 1017.1
20260903154559 95 352 1.0 3.0 0.00 0.00 0.00 55 1017.2
20260903153105 94 344 0.0 2.0 0.00 0.00 0.00 55 1017.3
20260903151547 93 27 0.0 3.0 0.00 0.00 0.00 57 1017.1
20260903150115 93 94 0.0 2.0 0.00 0.00 0.00 58 1017.1
20260903144553 91 148 0.0 2.0 0.00 0.00 0.00 60 1017.4
20260903143103 90 0 0.0 2.0 0.00 0.00 0.00 62 1017.4
20260903141558 90 0 0.0 2.0 0.00 0.00 0.00 63 1017.5
20260903140059 89 352 0.0 1.0 0.00 0.00 0.00 65 1017.3
20260903134556 88 0 0.0 0.0 0.00 0.00 0.00 66 1017.5
20260903133052 86 0 0.0 0.0 0.00 0.00 0.00 70 1017.3
20260903131559 84 0 0.0 0.0 0.00 0.00 0.00 73 1017.3
20260903130058 82 0 0.0 0.0 0.00 0.00 0.00 76 1017.3
20260903124555 80 0 0.0 0.0 0.00 0.00 0.00 79 1017.5
20260903123100 78 0 0.0 0.0 0.00 0.00 0.00 81 1017.4
20260903121546 77 0 0.0 0.0 0.00 0.00 0.00 83 1017.2
20260903120054 76 0 0.0 0.0 0.00 0.00 0.00 83 1017.1
20260903114549 76 0 0.0 0.0 0.00 0.00 0.00 83 1016.8
20260903113049 76 0 0.0 0.0 0.00 0.00 0.00 82 1016.7
20260903111606 77 0 0.0 0.0 0.00 0.00 0.00 81 1016.6
20260903110052 77 0 0.0 0.0 0.00 0.00 0.00 81 1016.6
20260903104622 77 0 0.0 0.0 0.00 0.00 0.00 80 1016.4
20260903103106 77 0 0.0 0.0 0.00 0.00 0.00 80 1016.4
20260903101558 78 0 0.0 0.0 0.00 0.00 0.00 80 1016.3
20260903100052 78 0 0.0 0.0 0.00 0.00 0.00 79 1016.3
20260903094550 78 0 0.0 0.0 0.00 0.00 0.00 78 1016.1
20260903093106 78 0 0.0 0.0 0.00 0.00 0.00 78 1016.1
20260903091555 78 0 0.0 0.0 0.00 0.00 0.00 77 1016.1
20260903090052 79 0 0.0 0.0 0.00 0.00 0.00 77 1016.2
20260903084550 79 0 0.0 0.0 0.00 0.00 0.00 77 1016.2
20260903083104 79 0 0.0 0.0 0.00 0.00 0.00 76 1016.1
20260903081608 80 0 0.0 0.0 0.00 0.00 0.00 75 1015.9
20260903080047 80 0 0.0 0.0 0.00 0.00 0.00 75 1015.8
20260903074557 80 0 0.0 0.0 0.00 0.00 0.00 75 1015.9
20260903073053 80 0 0.0 0.0 0.00 0.00 0.00 75 1016.0
20260903071553 81 0 0.0 0.0 0.00 0.00 0.00 74 1016.0
20260903070048 81 0 0.0 0.0 0.00 0.00 0.00 74 1016.1
20260903064555 81 0 0.0 0.0 0.00 0.00 0.00 73 1015.9
20260903063053 81 0 0.0 0.0 0.00 0.00 0.00 73 1016.2
20260903061547 82 0 0.0 0.0 0.00 0.00 0.00 72 1016.3
20260903060057 82 0 0.0 0.0 0.00 0.00 0.00 72 1016.3
20260903054601 82 0 0.0 0.0 0.00 0.00 0.00 71 1016.2
20260903053101 82 0 0.0 0.0 0.00 0.00 0.00 72 1016.0
20260903051554 82 0 0.0 0.0 0.00 0.00 0.00 72 1016.1
20260903050049 82 0 0.0 0.0 0.00 0.00 0.00 71 1016.1
20260903044549 83 0 0.0 0.0 0.00 0.00 0.00 71 1015.9
20260903043047 83 0 0.0 0.0 0.00 0.00 0.00 71 1015.8
20260903041554 83 0 0.0 0.0 0.00 0.00 0.00 71 1015.8
20260903040051 83 0 0.0 0.0 0.00 0.00 0.00 70 1015.9
20260903034548 84 0 0.0 0.0 0.00 0.00 0.00 69 1015.8
20260903033101 84 0 0.0 0.0 0.00 0.00 0.00 68 1015.8
20260903031553 85 0 0.0 0.0 0.00 0.00 0.00 67 1016.0
20260903030055 85 0 0.0 0.0 0.00 0.00 0.00 67 1016.1
20260903024548 86 0 0.0 0.0 0.00 0.00 0.00 66 1016.1
20260903023057 86 0 0.0 0.0 0.00 0.00 0.00 66 1015.8
20260903021551 86 0 0.0 0.0 0.00 0.00 0.00 66 1015.8
20260903014548 86 0 0.0 0.0 0.00 0.00 0.00 66 1015.4
20260903013056 87 0 0.0 0.0 0.00 0.00 0.00 64 1015.2
20260903011549 88 0 0.0 0.0 0.00 0.00 0.00 63 1015.2
20260903010048 89 0 0.0 0.0 0.00 0.00 0.00 62 1015.0
20260903004604 90 0 0.0 0.0 0.00 0.00 0.00 60 1015.0